Location: Gro� Glienicke
(52.4675°N, 13.1079°E)
Time: 01:36:48
(UTC+00:00)

Cosmos 332 Rocket - Pass Details

Date: 06 July 2020
Orbit: 682 x 703 km, 74.0° (Epoch: 11 August)

Event Time Altitude Azimuth Distance (km) Brightness Sun altitude
Rises 22:12:13 0° 336° (NNW) 3,059 8.9 -13.8°
Reaches altitude 10° 22:14:34 10° 340° (NNW) 2,139 7.7 -13.9°
Maximum altitude 22:19:20 61° 61° (ENE) 779 4.1 -14.1°
Enters shadow 22:22:49 18° 138° (SE) 1,654 5.2 -14.2°
